Regional Weather Roundup
Issued by NWS Goodland, KS

Home | Current Version | Previous Version | Graphics & Text | Print | Product List | Glossary On
Versions: 1 2 3 4 5 6 7 8 9 10 11 12 13 14 15 16 17 18 19 20 21 22 23 24 25 26 27 28 29 30 31 32 33 34 35 36 37 38 39 40 41 42 43 44 45 46 47 48 49 50
000
ASUS43 KGLD 230308
RWRGLD

GOODLAND FORECAST AREA HOURLY WEATHER ROUNDUP
NATIONAL WEATHER SERVICE GOODLAND KS
900 PM MDT TUE JUL 22 2014

...OFFICIAL OBSERVATIONS...

CITY           SKY/WX    TMP DP  RH WIND       PRES   REMARKS
GOODLAND KS    CLEAR     80  67  64 E13       30.21R
HILL CITY KS   CLEAR     84  72  67 E10       30.13R
IMPERIAL NEB   CLEAR     78  62  57 E9        30.21R
MCCOOK NEB     CLEAR     79  62  56 E10       30.18R
AKRON CO       CLEAR     77  59  53 E9        30.27R
BURLINGTON CO  CLEAR     80  61  52 E10       30.24R
LIMON CO       PTCLDY    80  53  39 E12       30.32R
$$

...UNOFFICIAL OBSERVATIONS...

CITY           SKY/WX    TMP DP  RH WIND       PRES   REMARKS
COLBY KS       CLEAR     81  72  74 NE12      30.19R
GOVE KS          N/A     85  32  15 MISG        N/A
LENORA KS        N/A     82  32  16 MISG        N/A
NORTON KS      CLEAR     79  61  53 NE12      30.14S
OBERLIN KS     FAIR      79  63  57 E10       30.17R
SHARON SPRINGS   N/A     80  67  65 SE8         N/A
ST FRANCIS KS  CLEAR     79  63  57 E12       30.19R
WAKEENEY KS      N/A     85  63  48 MISG        N/A
KIT CARSON CO    N/A     84  59  42 CALM        N/A
YUMA CO          N/A     79  61  54 E6          N/A
$$



USA.gov is the U.S. government's official web portal to all federal, state and local government web resources and services.